[[{"header":{"parameterUnit":"m.s-1","parameterCategory":1,"la1":30.2992,"la2":30.254,"lo1":-89.0895,"lo2":-89.0443,"dy":0.0025,"dx":0.0025,"nx":19,"ny":19,"refTime":"2026-03-18T21:00:00:Z","depth":0,"parameterNumber":2,"parameterNumberName":"U-component_of_WINDS"},"data":[0,0,0,3.2668,3.2672,3.2874,3.2875,3.3135,3.3137,0,0,0,0,0,0,0,0,0,0,0,3.2611,3.2613,3.2667,3.2673,3.2874,3.2875,3.3134,3.3137,0,0,0,0,0,0,0,0,0,0,0,3.261,3.2613,3.2615,3.2673,3.2874,3.2875,3.3134,3.298,0,0,0,0,0,0,0,0,0,0,3.2784,3.2736,3.2612,3.2615,3.2675,3.2874,3.2875,3.2973,3.299,3.3045,0,3.3096,0,3.3121,3.3155,3.3156,0,0,0,3.267,3.2721,3.2773,3.2615,3.2677,3.2874,3.2782,3.2982,3.3002,3.3067,3.31,3.3109,3.3125,3.3156,3.3158,3.3485,3.3486,0,0,3.2659,3.2649,3.276,3.2786,3.2757,3.2776,3.2789,3.2994,3.3028,3.3101,3.3115,3.3129,3.3158,3.316,3.3483,3.3485,0,0,0,3.2629,3.2641,3.2688,3.2775,3.2811,3.2782,3.2797,3.3019,3.3035,3.3118,3.3132,3.316,3.3163,3.3482,3.3484,3.3555,0,0,0,3.2622,3.2624,3.2683,3.2679,3.2808,3.2918,3.2817,3.3021,3.3044,3.3131,3.316,3.3165,3.348,3.3483,3.355,3.359,0,0,0,3.2597,3.2621,3.2651,3.2678,3.2765,3.2915,3.2943,3.3026,3.3053,3.3156,3.3166,3.3479,3.3482,3.3544,3.3582,3.3671,0,0,0,3.2567,3.2713,3.2652,3.282,3.2763,3.2959,3.2942,3.3088,3.3184,3.3161,3.348,3.3484,3.3543,3.3577,3.3666,3.3744,3.3776,0,0,3.2746,3.2734,3.2834,3.2785,3.2989,3.2929,3.3143,3.324,3.3259,3.3408,3.3416,3.3552,3.3581,3.367,3.3964,3.399,0,0,0,3.2887,3.2958,3.3014,3.3106,3.3184,3.3253,3.3319,3.3355,3.3482,3.3334,3.361,3.3628,3.368,3.3718,3.374,3.3784,3.3501,3.3501,3.3501,3.3124,3.314,3.3304,3.3343,3.3432,3.3498,3.3571,3.3629,3.362,3.3684,3.3728,3.3905,3.3949,3.3965,3.4011,3.3773,3.3773,3.3773,3.3773,3.3384,3.3486,3.3469,3.3622,3.3636,3.3764,3.3832,3.382,3.394,3.3874,3.3921,3.3845,3.3992,3.4033,3.3779,3.3778,3.3777,3.3777,3.3776,3.354,3.3591,3.3632,3.3764,3.3864,3.3899,3.4014,3.4024,3.4034,3.408,3.4126,3.4124,3.4122,3.4102,3.4102,3.4103,3.4104,3.4104,3.4104,3.3683,3.3728,3.3824,3.3918,3.3977,3.4055,3.4121,3.4179,3.4244,3.4242,3.4242,3.4223,3.4005,3.3948,3.4114,3.4112,3.4111,3.411,3.4109,3.3938,3.3881,3.4031,3.409,3.4199,3.4295,3.4306,3.4422,3.4471,3.4526,3.4498,3.4336,3.4324,3.4307,3.426,3.4496,3.4496,3.4496,3.4496,3.4067,3.4063,3.4216,3.4308,3.44,3.4425,3.4589,3.4641,3.4685,3.4715,3.4683,3.4622,3.4604,3.4603,3.4579,3.4535,3.4836,3.4837,3.4837,3.4223,3.4227,3.4367,3.441,3.4495,3.4568,3.4722,3.4826,3.4865,3.4851,3.4738,3.4724,3.4626,3.4594,3.4575,3.4538,3.4458,0,0]},{"header":{"parameterUnit":"m.s-1","parameterCategory":1,"la1":30.2992,"la2":30.254,"lo1":-89.0895,"lo2":-89.0443,"dy":0.0025,"dx":0.0025,"nx":19,"ny":19,"refTime":"2026-03-18T21:00:00:Z","depth":0,"parameterNumber":3,"parameterNumberName":"V-component_of_WINDS"},"data":[0,0,0,-0.6731,-0.673,-0.6657,-0.6657,-0.6565,-0.6564,0,0,0,0,0,0,0,0,0,0,0,-0.6755,-0.6755,-0.6731,-0.673,-0.6657,-0.6657,-0.6565,-0.6564,0,0,0,0,0,0,0,0,0,0,0,-0.6755,-0.6755,-0.6754,-0.6729,-0.6658,-0.6657,-0.6565,-0.6619,0,0,0,0,0,0,0,0,0,0,-0.6689,-0.6714,-0.6755,-0.6754,-0.6729,-0.6658,-0.6657,-0.6622,-0.6616,-0.6599,0,-0.6586,0,-0.6574,-0.6558,-0.6558,0,0,0,-0.6727,-0.6719,-0.6698,-0.6754,-0.6728,-0.6658,-0.6689,-0.6618,-0.6612,-0.6591,-0.6585,-0.6582,-0.6573,-0.6558,-0.6557,-0.6474,-0.6474,0,0,-0.6731,-0.6743,-0.6703,-0.6694,-0.6708,-0.6692,-0.6687,-0.6614,-0.6608,-0.6585,-0.6579,-0.6571,-0.6557,-0.6557,-0.6474,-0.6474,0,0,0,-0.6744,-0.6746,-0.6726,-0.6698,-0.6685,-0.669,-0.6684,-0.6611,-0.6604,-0.6578,-0.657,-0.6557,-0.6556,-0.6474,-0.6474,-0.6473,0,0,0,-0.6747,-0.6754,-0.6728,-0.6734,-0.6686,-0.6647,-0.6683,-0.6609,-0.66,-0.6571,-0.6557,-0.6555,-0.6475,-0.6474,-0.6474,-0.647,0,0,0,-0.6759,-0.6755,-0.6746,-0.6735,-0.6705,-0.6648,-0.6637,-0.6607,-0.6595,-0.6558,-0.6555,-0.6475,-0.6474,-0.6474,-0.6471,-0.6452,0,0,0,-0.6775,-0.6744,-0.6746,-0.6708,-0.6706,-0.6649,-0.6637,-0.6594,-0.6562,-0.6556,-0.6475,-0.6474,-0.6474,-0.6471,-0.6452,-0.6437,-0.6433,0,0,-0.6743,-0.6741,-0.6718,-0.6717,-0.6664,-0.6659,-0.6605,-0.6563,-0.6547,-0.6499,-0.6496,-0.6473,-0.6471,-0.6452,-0.6402,-0.6399,0,0,0,-0.6712,-0.6695,-0.6679,-0.665,-0.662,-0.6592,-0.6558,-0.6543,-0.6502,-0.6526,-0.6461,-0.6459,-0.6447,-0.644,-0.6436,-0.6425,-0.6471,-0.6471,-0.6471,-0.6682,-0.6666,-0.6627,-0.6602,-0.6575,-0.6541,-0.6517,-0.649,-0.648,-0.6465,-0.645,-0.6422,-0.6414,-0.6411,-0.64,-0.6441,-0.6441,-0.6441,-0.6441,-0.6633,-0.6607,-0.6597,-0.6555,-0.6538,-0.6502,-0.6468,-0.6463,-0.6425,-0.6432,-0.642,-0.6428,-0.6408,-0.6397,-0.6441,-0.6441,-0.6441,-0.6441,-0.6441,-0.6611,-0.6596,-0.6579,-0.6538,-0.6507,-0.6482,-0.6448,-0.6433,-0.6418,-0.6407,-0.639,-0.6389,-0.6387,-0.64,-0.64,-0.64,-0.64,-0.64,-0.64,-0.6594,-0.6576,-0.655,-0.6516,-0.6497,-0.6469,-0.6435,-0.6415,-0.6388,-0.6379,-0.6379,-0.637,-0.6409,-0.6419,-0.6398,-0.6398,-0.6399,-0.6399,-0.6399,-0.6549,-0.6557,-0.6518,-0.6498,-0.6457,-0.6428,-0.641,-0.6369,-0.635,-0.6333,-0.6328,-0.6359,-0.6355,-0.6358,-0.6366,-0.6332,-0.6332,-0.6332,-0.6332,-0.653,-0.6528,-0.6484,-0.6454,-0.6423,-0.6403,-0.6357,-0.6331,-0.6304,-0.6291,-0.6294,-0.6304,-0.6307,-0.6301,-0.6304,-0.6311,-0.6265,-0.6265,-0.6264,-0.6501,-0.6496,-0.646,-0.6437,-0.6404,-0.6376,-0.6332,-0.6296,-0.6268,-0.6261,-0.628,-0.6283,-0.6298,-0.6304,-0.6297,-0.6303,-0.6316,0,0]}]]